星链-4579 (STARLINK-4579 )

导读

STARLINK-4579是美国SpaceX公司星链星座中的量产低轨通信卫星,于2022年8月31日发射入轨。作为星链全球宽带互联网项目的组成部分,它采用平板设计,搭载Ku/Ka波段通信载荷与氪工质霍尔推进器,具备自主避撞能力,运行于近地轨道,为全球用户提供高速卫星互联网接入服务,寿命末期将主动离轨再入大气层销毁。

基本信息
目录编号:
53677
目录名称:
STARLINK-4579
国际标识:
2022-105AF
轨道中心:
EARTH
卫星名称:
星链-4579
卫星全名:
星链-4579 (STARLINK-4579 )
卫星状态:
在轨 (已飞行1382 天)
发射日期:
2022-08-31 UTC
国别 :
美国 (US)
星等 :
--
轨道信息
数据来源 国际轨道数据 AOE轨道数据
星历时间 2026-06-13T14:08:34+0800
13小时前
查看轨道信息
2026-06-13T00:00:00+0800
1天前
查看轨道信息
半长轴 6927.658km 6927.606km
偏心率 0.0002758 0.0002602
轨道倾角 97.366° 97.366°
近地点辐角 69.036° 82.442°
升交点赤经 44.564° 44.007°
平近点角 291.116° 325.623°
近地点 547.61km 547.666km
远地点 551.432km 551.272km
周期 95.640分钟 95.639分钟
每日圈数 15.05647 15.056639
详细信息
固有亮度:
5
最大亮度:
2.5
卫星平台:
Starlink v1.5
覆盖范围:
全球
运营商:
太空探索技术公司
运营商所在国:
美国
制造商(研发单位):
太空探索技术公司
制造商所在国:
美国
使用方式:
暂无
卫星简介
星链(Starlink)计划是由太空探索技术公司(SpaceX)提出的一个巨型低轨卫星互联网星座项目,计划在2019年至2024年间在太空搭建由约1.2万颗卫星组成的“星链”网络,其中1584颗将部署在地球上空550千米处的近地轨道,并从2020年开始工作。该卫星仍在工作。
2D轨道图
3D轨道图
轨道高度分析图
轨道倾角分析图
轨道综合分析图
查看轨道综合分析图